This is the latest recevied weather packets stored in our database for station/object WW5JC. If no packets are shown the sender has not sent any weather packets the latest 1 day(s).
| Time | Temp. | Humidity | Pressure | Rain* | Wind** | Luminosity | Snow |
|---|---|---|---|---|---|---|---|
| 1778030985 | 22.78° C | 79% | 1007.4 hPa | 0 mm | 1.79 m/s, 289° | 0 W/m² | - |
| 1778030681 | 23.33° C | 76% | 1007.4 hPa | 0 mm | 2.68 m/s, 307° | 0 W/m² | - |
| 1778030378 | 24.44° C | 70% | 1007.3 hPa | 0 mm | 1.34 m/s, 346° | 0 W/m² | - |
| 1778030076 | 25° C | 67% | 1007.1 hPa | 0 mm | 1.79 m/s, 330° | 0 W/m² | - |
| 1778029773 | 25° C | 64% | 1007.3 hPa | 0 mm | 0.45 m/s, 305° | 1 W/m² | - |
| 1778029472 | 25.56° C | 64% | 1007.2 hPa | 0 mm | 0.89 m/s, 232° | 1 W/m² | - |
| 1778029167 | 25.56° C | 64% | 1007.5 hPa | 0 mm | 0.89 m/s, 279° | 2 W/m² | - |
| 1778028866 | 25.56° C | 65% | 1007.3 hPa | 0 mm | 0.89 m/s, 309° | 2 W/m² | - |
| 1778028561 | 25.56° C | 65% | 1006.9 hPa | 0 mm | 2.24 m/s, 302° | 2 W/m² | - |
| 1778028259 | 25.56° C | 81% | 1006.7 hPa | 0 mm | 1.79 m/s, 335° | 4 W/m² | - |
| 1778027955 | 25.56° C | 85% | 1006.8 hPa | 0 mm | 1.34 m/s, 208° | 6 W/m² | - |
| 1778027651 | 25.56° C | 85% | 1007 hPa | 0 mm | 0.89 m/s, 186° | 3 W/m² | - |
| 1778027348 | 26.11° C | 84% | 1006.3 hPa | 0 mm | 0.89 m/s, 186° | 8 W/m² | - |
| 1778027044 | 26.11° C | 84% | 1006.4 hPa | 0 mm | 0.89 m/s, 203° | 16 W/m² | - |
| 1778026739 | 26.11° C | 83% | 1006.3 hPa | 0 mm | 0.89 m/s, 200° | 11 W/m² | - |
| 1778026437 | 26.11° C | 83% | 1006.5 hPa | 0 mm | 0.89 m/s, 193° | 23 W/m² | - |
| 1778026134 | 26.11° C | 84% | 1006.2 hPa | 0 mm | 0.89 m/s, 188° | 40 W/m² | - |
| 1778025832 | 26.11° C | 84% | 1006 hPa | 0 mm | 1.34 m/s, 162° | 58 W/m² | - |
| 1778025528 | 26.11° C | 83% | 1006.4 hPa | 0 mm | 2.68 m/s, 197° | 43 W/m² | - |
| 1778025226 | 26.11° C | 83% | 1006.1 hPa | 0 mm | 1.34 m/s, 186° | 37 W/m² | - |
| 1778024923 | 26.67° C | 82% | 1006.1 hPa | 0 mm | 1.34 m/s, 179° | 38 W/m² | - |
| 1778024620 | 26.67° C | 82% | 1006.1 hPa | 0 mm | 0.89 m/s, 188° | 44 W/m² | - |
| 1778024317 | 26.67° C | 81% | 1006.2 hPa | 0 mm | 2.24 m/s, 195° | 40 W/m² | - |
| 1778024015 | 26.67° C | 81% | 1006 hPa | 0 mm | 2.68 m/s, 196° | 44 W/m² | - |
| 1778023712 | 26.67° C | 80% | 1005.9 hPa | 0 mm | 1.79 m/s, 183° | 39 W/m² | - |
* Rain latest hour (hover to see other rain measurements)
** Current wind speed in m/s (hover to see current wind gust speed)